This demonstration page uses our WeatherBlox Daily Observations layout. Learn more.

Left ArrowRight Arrow

Hourly Observations for November 26, 2022

Temp ( °F °C ) Dew Point ( °F °C ) Humidity (%) Winds ( mph kmh ) Pressure ( in mb ) Visibility ( mi km ) Precip ( " mm )
12:19 am 00:19 Cloudy with Mist and Fog 33 0.6 33 0.6 100 100 NW 5 7 30.21 1023 4 6 0.00 0.00
12:49 am 00:49 Cloudy with Mist and Fog 34 1 34 1 100 100 WNW 5 7 30.22 1023 5 8 0.00 0.00
12:53 am 00:53 Cloudy with Mist and Fog 33 0.6 33 0.6 100 100 NW 5 7 30.10 1019 5 8 0.00 0.00
1:10 am 01:10 Cloudy with Mist and Fog 33 0.6 33 0.6 100 100 W 5 7 30.21 1023 5 8 0.00 0.00
1:53 am 01:53 Cloudy with Mist and Fog 34 1.1 33 0.6 96 96 Calm 30.09 1019 3 5 0.00 0.00
2:05 am 02:05 Cloudy with Mist and Fog 34 1.1 33 0.6 96 96 W 3 6 30.18 1022 3 4 0.00 0.00
2:53 am 02:53 Cloudy with Mist and Fog 34 1.1 34 1.1 100 100 Calm 30.06 1018 3 5 0.00 0.00
3:53 am 03:53 Cloudy with Mist and Fog 34 1.1 33 0.6 96 96 WNW 6 9 30.04 1017 5 8 0.00 0.00
4:44 am 04:44 Cloudy with Light Snow 33 0.6 33 0.6 100 100 NW 5 7 30.12 1020 2 3 0.01 0.13
4:53 am 04:53 Cloudy with Light Snow 33 0.6 32 0 96 96 WNW 7 11 30.01 1016 3 4 0.01 0.25
5:08 am 05:08 Cloudy with Light Snow 33 0.6 32 0 96 96 WNW 5 7 30.11 1020 1 2 0.01 0.13
5:53 am 05:53 Cloudy with Light Snow 33 0.6 32 0 96 96 WNW 5 7 30.00 1016 2 2 0.03 0.76
6:06 am 06:06 Cloudy with Light Snow 33 0.6 32 0 96 96 W 5 7 30.10 1019 2 3 0.01 0.13
6:43 am 06:43 Cloudy with Light Snow 33 0.6 32 0 96 96 W 8 13 30.09 1019 2 3 0.01 0.25
6:48 am 06:48 Cloudy with Light Snow 34 1 32 0 93 93 W 8 13 30.09 1019 3 5 0.01 0.25
6:53 am 06:53 Cloudy with Light Snow 33 0.6 32 0 96 96 W 8 13 29.99 1016 4 6 0.01 0.25
7:02 am 07:02 Cloudy 33 0.6 32 0 96 96 W 8 13 30.09 1019 7 11 0.01 0.13
7:35 am 07:35 Cloudy 34 1.1 33 0.6 96 96 W 9 15 30.07 1018 7 11 0.01 0.13
7:53 am 07:53 Cloudy with Mist and Fog 34 1.1 33 0.6 96 96 W 9 15 29.98 1015 5 8 0.01 0.13
8:53 am 08:53 Cloudy 35 1.7 34 1.1 96 96 WNW 10 17 29.99 1016 7 11 0.00 0.00
9:05 am 09:05 Cloudy 36 2.2 35 1.7 96 96 WNW 10 17 30.07 1018 10 16 0.00 0.00
9:19 am 09:19 Cloudy 36 2.2 35 1.7 96 96 NW 10 17 30.08 1019 9 14 0.00 0.00
9:40 am 09:40 Cloudy 36 2.2 34 1.1 92 92 WNW 10 17 30.08 1019 9 14 0.01 0.13
9:49 am 09:49 Cloudy 36 2 36 2 100 100 WNW 9 15 30.08 1019 9 14 0.01 0.13
9:53 am 09:53 Cloudy with Light Rain 36 2.2 35 1.7 96 96 WNW 9 15 29.99 1016 8 13 0.01 0.13
10:35 am 10:35 Mostly Cloudy 39 3.9 36 2.2 89 89 WNW 15 24 30.04 1017 10 16 0.01 0.13
10:53 am 10:53 Partly Cloudy 40 4.4 37 2.8 89 89 WNW 13 20 29.97 1015 10 16 0.01 0.13
11:53 am 11:53 Mostly Cloudy 41 5 37 2.8 86 86 W 16 26 29.93 1014 10 16 0.00 0.00
12:53 pm 12:53 Sunny 45 7.2 37 2.8 74 74 W 20 31 29.88 1012 10 16 0.00 0.00
1:53 pm 13:53 Sunny 48 8.9 39 3.9 71 71 W 15 24 29.82 1010 10 16 0.00 0.00
2:53 pm 14:53 Sunny 51 10.6 36 2.2 56 56 W 20 31 29.79 1009 10 16 0.00 0.00
3:53 pm 15:53 Sunny 54 12.2 36 2.2 50 50 W 17 28 29.76 1008 10 16 0.00 0.00
4:53 pm 16:53 Sunny 54 12.2 36 2.2 50 50 W 18 30 29.75 1008 10 16 0.00 0.00
5:53 pm 17:53 Clear 52 11.1 35 1.7 52 52 W 14 22 29.75 1007 10 16 0.00 0.00
6:53 pm 18:53 Clear 49 9.4 35 1.7 59 59 W 9 15 29.76 1008 10 16 0.00 0.00
7:53 pm 19:53 Clear 49 9.4 34 1.1 56 56 W 12 19 29.77 1008 10 16 0.00 0.00
8:53 pm 20:53 Clear 49 9.4 34 1.1 56 56 W 12 19 29.78 1008 10 16 0.00 0.00
9:53 pm 21:53 Clear 45 7.2 34 1.1 65 65 WSW 7 11 29.80 1009 10 16 0.00 0.00
10:53 pm 22:53 Clear 43 6.1 33 0.6 68 68 SW 7 11 29.80 1009 10 16 0.00 0.00
11:53 pm 23:53 Clear 40 4.4 33 0.6 76 76 SW 6 9 29.80 1009 10 16 0.00 0.00

Powered by AerisWeather